Starlink 6196

operational
NORAD ID: 56487 Int'l Des: 2023-064 Owner: SPXS Country: US Constellation: starlink
LEOCIRCULAR

Starlink 6196について

説明を読み込み中...

リアルタイム位置

3D地球を読み込み中...

次回通過

高度履歴

Altitude vs Time

uPlot chart will show altitude changes over time

軌道要素

1 56487U 23064AR 25353.29310304 .00001105 00000-0 10039-3 0 9998
2 56487 69.9997 307.0156 0002868 274.2205 85.8627 14.98338664144196
Epoch: Dec 19, 2025 • Age: 15 hours

現在のステータス

高度 587.7 km
速度 7.57 km/s
衛星直下点 -45.92°S, 81.43°E
打ち上げ日 May 10, 2023
運用期間 2.6 years
タイプ internet

技術仕様

分類 Payload
質量 305.00 kg
乾燥質量 290.00 kg
総質量 305.00 kg
長さ 0.20 m
直径 2.80 m
スパン 9.00 m
形状 Box + pan
製造者 SPXS
バスタイプ Starlink
フェーズステータス In Orbit
所有者/国 SPXS/US

大規模コンステレーション

Loading constellations...